FW2053 Weather Reports


Display with metric or nautical units.
time (UTC)temp
F
wind
direction
speed
MPH
gust
MPH
rain 1hr
in
rain 24hr
in
rain mn
in
humidity
%
barometer
mb
20210415114737 56 292 0.0 1.0 0.00 0.16 0.01 94 1011.3
20210415114229 56 292 1.0 4.0 0.00 0.16 0.01 94 1011.4
20210415113729 56 292 1.0 4.0 0.00 0.16 0.01 94 1011.4
20210415113128 55 292 0.0 0.0 0.00 0.16 0.01 94 1011.3
20210415112101 55 292 0.0 0.0 0.00 0.16 0.01 94 1011.2
20210415111226 55 292 0.0 0.0 0.00 0.16 0.01 94 1011.2
20210415110713 55 292 0.0 0.0 0.00 0.16 0.01 94 1011.3
20210415110200 55 292 1.0 4.0 0.00 0.16 0.01 94 1011.2
20210415105920 55 292 1.0 4.0 0.00 0.16 0.01 94 1011.1
20210415104757 55 292 2.0 7.0 0.00 0.16 0.01 94 1011.0
20210415104152 55 292 3.0 7.0 0.00 0.16 0.01 94 1011.1
20210415103652 55 297 3.0 8.0 0.00 0.16 0.01 94 1011.1
20210415103525 55 324 3.0 6.0 0.00 0.16 0.01 93 1011.1
20210415102825 55 346 3.0 6.0 0.00 0.16 0.01 93 1011.2
20210415101752 55 329 3.0 8.0 0.00 0.16 0.01 93 1011.1
20210415101156 55 325 2.0 8.0 0.00 0.16 0.01 93 1010.8
20210415100654 54 329 1.0 6.0 0.00 0.16 0.01 93 1010.9
20210415100155 54 330 2.0 6.0 0.00 0.16 0.01 93 1010.8
20210415100054 54 325 2.0 5.0 0.00 0.16 0.01 93 1010.7
20210415095522 54 340 2.0 5.0 0.00 0.16 0.01 93 1010.3
20210415094203 54 320 2.0 4.0 0.00 0.16 0.01 93 1010.4
20210415093644 54 320 1.0 3.0 0.00 0.16 0.01 93 1010.5
20210415093301 54 320 2.0 4.0 0.00 0.16 0.01 93 1010.6
20210415093053 54 320 2.0 5.0 0.00 0.16 0.01 93 1010.8
20210415091639 54 315 2.0 5.0 0.00 0.16 0.01 93 1010.7
20210415091139 54 309 2.0 7.0 0.00 0.16 0.01 93 1010.8
20210415090639 54 310 2.0 7.0 0.00 0.16 0.01 93 1010.8
20210415090231 54 344 1.0 4.0 0.00 0.16 0.01 93 1010.9
20210415085915 54 345 2.0 5.0 0.00 0.16 0.01 93 1010.8
20210415084906 54 350 2.0 5.0 0.00 0.16 0.01 93 1010.9
20210415084135 54 16 2.0 5.0 0.00 0.16 0.01 92 1011.0
20210415083728 54 17 2.0 5.0 0.00 0.16 0.01 92 1010.8
20210415083451 54 5 2.0 6.0 0.00 0.16 0.01 92 1010.9
20210415083129 54 22 2.0 6.0 0.00 0.16 0.01 92 1010.9
20210415082828 54 22 1.0 5.0 0.00 0.16 0.01 92 1010.9
20210415081743 54 327 1.0 4.0 0.00 0.16 0.01 92 1011.2
20210415081125 54 328 2.0 4.0 0.00 0.16 0.01 92 1011.3
20210415080655 54 332 2.0 5.0 0.00 0.16 0.01 92 1011.4
20210415080058 54 311 3.0 8.0 0.00 0.16 0.01 92 1011.7
20210415074633 54 319 2.0 6.0 0.00 0.16 0.01 92 1011.7
20210415074115 54 323 2.0 5.0 0.00 0.16 0.01 92 1011.5
20210415073616 54 323 2.0 6.0 0.00 0.16 0.01 92 1011.5
20210415073129 54 322 2.0 6.0 0.00 0.16 0.01 92 1011.6
20210415072916 54 14 2.0 7.0 0.00 0.16 0.01 92 1011.6
20210415072525 54 22 2.0 5.0 0.00 0.16 0.01 92 1011.5
20210415071445 54 55 1.0 4.0 0.00 0.16 0.01 92 1011.6
20210415070915 54 55 1.0 3.0 0.00 0.16 0.01 92 1011.6
20210415070255 54 57 2.0 3.0 0.00 0.16 0.01 92 1011.6
20210415065954 54 57 1.0 3.0 0.00 0.16 0.01 92 1011.6
20210415065547 54 57 2.0 3.0 0.01 0.16 0.01 92 1011.6
20210415064610 54 58 2.0 5.0 0.01 0.16 0.01 92 1011.6
20210415064105 54 58 2.0 5.0 0.01 0.16 0.01 92 1011.6
20210415063611 54 61 2.0 6.0 0.01 0.16 0.01 92 1011.5
20210415063155 54 63 2.0 6.0 0.01 0.16 0.01 92 1011.5
20210415063031 54 85 2.0 4.0 0.01 0.16 0.01 92 1011.6
20210415062606 54 86 2.0 4.0 0.01 0.16 0.01 91 1011.6
20210415061623 55 86 2.0 4.0 0.01 0.16 0.01 91 1011.7
20210415061059 54 91 2.0 6.0 0.01 0.16 0.01 91 1011.8
20210415060559 55 94 2.0 6.0 0.01 0.16 0.01 91 1011.9
20210415060101 55 94 3.0 7.0 0.01 0.16 0.01 91 1012.0
20210415055839 55 96 3.0 7.0 0.01 0.16 0.01 91 1012.2
20210415055309 55 90 1.0 6.0 0.00 0.15 0.00 91 1012.2
20210415054557 54 119 0.0 1.0 0.00 0.15 0.00 91 1012.5
20210415054053 54 119 0.0 6.0 0.00 0.15 0.00 91 1012.7
20210415053559 54 119 1.0 6.0 0.00 0.15 0.00 91 1012.8
20210415053150 54 119 3.0 7.0 0.00 0.15 0.00 91 1012.8
20210415052850 54 120 4.0 7.0 0.00 0.15 0.00 91 1012.8
20210415052540 54 100 3.0 6.0 0.00 0.15 0.00 91 1012.9
20210415051544 54 104 3.0 6.0 0.00 0.15 0.00 91 1012.9
20210415051045 55 103 3.0 6.0 0.00 0.15 0.00 91 1013.0
20210415050547 55 98 3.0 8.0 0.00 0.15 0.00 91 1013.0
20210415050051 55 29 4.0 10.0 0.00 0.15 0.00 91 1012.9
20210415045838 55 89 4.0 10.0 0.00 0.15 0.00 91 1013.0
20210415045343 55 62 4.0 10.0 0.00 0.15 0.00 91 1013.2
20210415044554 55 69 4.0 10.0 0.01 0.15 0.00 91 1013.2
20210415044038 55 64 5.0 12.0 0.01 0.15 0.00 91 1013.1
20210415043538 55 73 6.0 12.0 0.01 0.15 0.00 91 1013.2
20210415043044 55 57 5.0 10.0 0.02 0.15 0.00 91 1013.6
20210415042943 55 28 5.0 10.0 0.02 0.15 0.00 91 1014.1
20210415042637 56 38 5.0 10.0 0.02 0.15 0.00 91 1014.2
20210415041555 56 60 4.0 10.0 0.02 0.15 0.00 91 1014.2
20210415041054 56 100 4.0 9.0 0.02 0.15 0.00 91 1014.1
20210415040530 56 46 4.0 9.0 0.03 0.15 0.00 91 1014.1
20210415040045 56 54 6.0 14.0 0.04 0.15 0.00 91 1014.0
20210415035858 56 49 6.0 14.0 0.06 0.15 0.15 91 1013.9
20210415035415 56 85 6.0 12.0 0.11 0.15 0.15 90 1014.0
20210415034529 56 57 5.0 12.0 0.11 0.14 0.14 91 1014.2
20210415034029 57 63 5.0 12.0 0.12 0.14 0.14 91 1014.2
20210415033531 57 65 5.0 13.0 0.12 0.14 0.14 90 1014.2
20210415033040 57 71 5.0 13.0 0.11 0.13 0.13 90 1014.3
20210415032758 57 65 4.0 9.0 0.11 0.13 0.13 90 1014.3
20210415032236 57 59 5.0 10.0 0.11 0.13 0.13 90 1014.4
20210415031519 57 95 5.0 15.0 0.11 0.13 0.13 90 1014.4
20210415031022 57 38 6.0 15.0 0.12 0.13 0.13 89 1014.4
20210415030516 57 61 7.0 15.0 0.12 0.12 0.12 89 1014.4
20210415030053 57 17 8.0 13.0 0.11 0.11 0.11 88 1014.8
20210415025632 58 333 6.0 13.0 0.04 0.04 0.04 87 1016.2
20210415024544 58 339 7.0 17.0 0.03 0.03 0.03 86 1015.7
20210415024033 58 84 6.0 17.0 0.02 0.02 0.02 85 1014.7
20210415023533 58 355 4.0 12.0 0.02 0.02 0.02 84 1015.2
20210415023036 58 20 4.0 10.0 0.02 0.02 0.02 84 1015.0
20210415022731 58 29 4.0 9.0 0.02 0.02 0.02 83 1015.1
20210415022156 59 48 4.0 11.0 0.02 0.02 0.02 82 1015.3
20210415021550 59 69 6.0 14.0 0.02 0.02 0.02 81 1015.3
20210415021026 60 53 6.0 14.0 0.01 0.01 0.01 80 1015.1
20210415020533 60 54 4.0 10.0 0.00 0.00 0.01 78 1015.3
20210415020400 61 65 5.0 12.0 0.00 0.00 0.00 77 1015.5
20210415020206 61 45 6.0 12.0 0.00 0.00 0.00 76 1015.4
20210415015832 61 27 5.0 10.0 0.00 0.00 0.00 76 1015.4
20210415014532 61 53 6.0 13.0 0.00 0.00 0.00 76 1015.1
20210415013958 61 17 6.0 13.0 0.00 0.00 0.00 76 1015.1
20210415013526 61 15 4.0 11.0 0.00 0.00 0.00 77 1015.0
20210415013316 61 45 6.0 12.0 0.00 0.00 0.00 77 1014.6
20210415013041 61 90 8.0 14.0 0.00 0.00 0.00 77 1014.7
20210415011517 61 74 7.0 14.0 0.00 0.00 0.00 77 1014.7
20210415010956 62 79 6.0 13.0 0.00 0.00 0.00 76 1014.7
20210415010501 62 84 6.0 11.0 0.00 0.00 0.00 76 1014.9
20210415010000 62 95 7.0 12.0 0.00 0.00 0.00 75 1015.0
20210415005442 62 78 6.0 10.0 0.00 0.00 0.00 76 1015.2
20210415004510 62 103 6.0 11.0 0.00 0.00 0.00 75 1015.2
20210415003951 62 73 7.0 11.0 0.00 0.00 0.00 75 1015.0
20210415003449 63 94 6.0 12.0 0.00 0.00 0.00 74 1015.2
20210415003238 63 100 7.0 12.0 0.00 0.00 0.00 73 1015.2
20210415002954 63 91 8.0 15.0 0.00 0.00 0.00 72 1015.1
20210415001707 63 84 8.0 15.0 0.00 0.00 0.00 71 1015.0
20210415001157 64 89 7.0 13.0 0.00 0.00 0.00 71 1015.0
20210415000856 64 94 7.0 14.0 0.00 0.00 0.00 71 1015.2
20210415000532 64 118 6.0 14.0 0.00 0.00 0.00 70 1015.2
20210415000055 65 88 5.0 11.0 0.00 0.00 0.00 72 1015.3
20210414235647 65 78 5.0 11.0 0.00 0.00 0.00 72 1015.4
20210414234515 65 92 5.0 11.0 0.00 0.00 0.00 74 1015.4
20210414234107 66 44 6.0 11.0 0.00 0.00 0.00 73 1015.2
20210414233451 67 44 5.0 11.0 0.00 0.00 0.00 71 1015.3
20210414233127 67 53 4.0 10.0 0.00 0.00 0.00 69 1015.2
20210414232831 68 53 4.0 8.0 0.00 0.00 0.00 67 1015.2
20210414232134 68 52 6.0 12.0 0.00 0.00 0.00 66 1015.1
20210414231438 68 61 7.0 14.0 0.00 0.00 0.00 65 1015.2
20210414230934 69 85 5.0 14.0 0.00 0.00 0.00 65 1015.3
20210414230430 69 48 3.0 9.0 0.00 0.00 0.00 66 1015.3
20210414230100 70 44 3.0 9.0 0.00 0.00 0.00 65 1015.3
20210414225856 70 69 3.0 6.0 0.00 0.00 0.00 63 1015.4
20210414225201 70 59 3.0 5.0 0.00 0.00 0.00 63 1015.3
20210414224439 70 75 4.0 7.0 0.00 0.00 0.00 62 1015.4
20210414223923 70 97 5.0 9.0 0.00 0.00 0.00 62 1015.3
20210414223422 70 96 4.0 9.0 0.00 0.00 0.00 62 1015.3
20210414222930 71 90 3.0 7.0 0.00 0.00 0.00 62 1015.3
20210414222820 71 96 3.0 7.0 0.00 0.00 0.00 61 1015.5
20210414222055 71 98 1.0 6.0 0.00 0.00 0.00 61 1015.4
20210414221515 71 114 1.0 3.0 0.00 0.00 0.00 61 1015.3
20210414220934 71 114 2.0 6.0 0.00 0.00 0.00 61 1015.4
20210414220424 71 114 2.0 6.0 0.00 0.00 0.00 61 1015.3
20210414215918 71 111 2.0 6.0 0.00 0.00 0.00 60 1015.2
20210414215751 71 113 3.0 10.0 0.00 0.00 0.00 61 1015.3
20210414214927 71 124 3.0 10.0 0.00 0.00 0.00 60 1015.3
20210414214422 72 127 2.0 6.0 0.00 0.00 0.00 59 1015.5
20210414213912 72 126 2.0 6.0 0.00 0.00 0.00 59 1015.5
20210414213421 72 120 2.0 8.0 0.00 0.00 0.00 59 1015.5
20210414213043 72 120 3.0 8.0 0.00 0.00 0.00 58 1015.5
20210414212936 72 104 2.0 9.0 0.00 0.00 0.00 59 1015.3
20210414212251 72 103 3.0 9.0 0.00 0.00 0.00 58 1015.7
20210414211419 72 100 4.0 9.0 0.00 0.00 0.00 58 1016.0
20210414210909 72 95 4.0 8.0 0.00 0.00 0.00 58 1016.0
20210414210414 72 86 3.0 8.0 0.00 0.00 0.00 57 1015.7
20210414205924 73 116 3.0 7.0 0.00 0.00 0.00 57 1015.7
20210414205730 73 119 3.0 7.0 0.00 0.00 0.00 57 1016.1
20210414204933 73 109 3.0 6.0 0.00 0.00 0.00 56 1016.1
20210414204421 74 92 2.0 7.0 0.00 0.00 0.00 56 1016.1
20210414203859 74 103 1.0 7.0 0.00 0.00 0.00 56 1016.1
20210414203412 73 113 0.0 2.0 0.00 0.00 0.00 57 1016.0
20210414203037 73 113 0.0 3.0 0.00 0.00 0.00 58 1016.2
20210414202906 72 113 1.0 6.0 0.00 0.00 0.00 58 1016.2
20210414202131 72 113 3.0 7.0 0.00 0.00 0.00 59 1016.3
20210414201402 72 109 3.0 7.0 0.00 0.00 0.00 58 1016.4
20210414200857 72 111 1.0 4.0 0.00 0.00 0.00 58 1016.5
20210414200355 73 113 1.0 4.0 0.00 0.00 0.00 57 1016.4
20210414195916 73 120 1.0 4.0 0.00 0.00 0.00 56 1016.5
20210414195837 73 113 2.0 7.0 0.00 0.00 0.00 57 1016.6
20210414194857 72 107 2.0 7.0 0.00 0.00 0.00 58 1016.5
20210414194352 72 113 1.0 6.0 0.00 0.00 0.00 57 1016.8
20210414193850 71 101 2.0 4.0 0.00 0.00 0.00 59 1016.8
20210414193350 71 103 3.0 8.0 0.00 0.00 0.00 59 1017.0
20210414193018 72 103 3.0 8.0 0.00 0.00 0.00 58 1017.3
20210414192716 73 94 3.0 8.0 0.00 0.00 0.00 57 1017.4
20210414191925 72 5 3.0 7.0 0.00 0.00 0.00 58 1017.5
20210414191347 72 45 3.0 7.0 0.00 0.00 0.00 57 1017.6
20210414190847 73 82 2.0 4.0 0.00 0.00 0.00 58 1017.7
20210414190340 72 134 1.0 4.0 0.00 0.00 0.00 60 1017.8
20210414190026 71 95 1.0 3.0 0.00 0.00 0.00 61 1017.8
20210414185755 70 95 2.0 6.0 0.00 0.00 0.00 62 1017.8
20210414185043 69 96 1.0 6.0 0.00 0.00 0.00 62 1018.0
20210414184347 69 236 1.0 3.0 0.00 0.00 0.00 62 1018.2
20210414183840 69 235 2.0 4.0 0.00 0.00 0.00 62 1018.4
20210414183345 69 235 2.0 4.0 0.00 0.00 0.00 61 1018.6
20210414183052 70 264 1.0 4.0 0.00 0.00 0.00 61 1018.7
20210414182854 70 325 2.0 5.0 0.00 0.00 0.00 61 1018.7
20210414181956 70 336 2.0 5.0 0.00 0.00 0.00 61 1018.7
20210414181335 70 275 2.0 4.0 0.00 0.00 0.00 61 1018.9
20210414180843 70 273 2.0 4.0 0.00 0.00 0.00 60 1018.9
20210414180406 71 227 2.0 3.0 0.00 0.00 0.00 61 1018.9
20210414180126 70 227 1.0 4.0 0.00 0.00 0.00 61 1018.9
20210414175845 70 227 1.0 4.0 0.00 0.00 0.00 61 1019.1
20210414175054 70 257 1.0 6.0 0.00 0.00 0.00 62 1019.2
20210414174322 70 257 1.0 6.0 0.00 0.00 0.00 62 1019.3
20210414173817 70 210 0.0 0.0 0.00 0.00 0.00 62 1019.3
20210414173315 70 208 0.0 0.0 0.00 0.00 0.00 63 1019.5
20210414172934 69 208 0.0 0.0 0.00 0.00 0.00 64 1019.7
20210414172739 69 208 0.0 0.0 0.00 0.00 0.00 63 1019.8
20210414171916 69 208 0.0 3.0 0.00 0.00 0.00 62 1019.8
20210414171320 70 208 1.0 4.0 0.00 0.00 0.00 61 1020.0
20210414170825 70 208 1.0 5.0 0.00 0.00 0.00 61 1019.7
20210414170548 70 207 2.0 8.0 0.00 0.00 0.00 60 1019.5
20210414170130 70 206 2.0 8.0 0.00 0.00 0.00 60 1019.5
20210414165909 71 188 3.0 9.0 0.00 0.00 0.00 59 1019.5
20210414164948 71 215 2.0 9.0 0.00 0.00 0.00 58 1019.5
20210414164256 71 197 2.0 6.0 0.00 0.00 0.00 58 1019.5
20210414163757 72 200 2.0 7.0 0.00 0.00 0.00 57 1019.5
20210414163310 72 182 2.0 7.0 0.00 0.00 0.00 57 1019.6
20210414163108 72 186 2.0 6.0 0.00 0.00 0.00 57 1019.8
20210414162905 72 213 2.0 6.0 0.00 0.00 0.00 57 1019.7
20210414161840 72 163 2.0 6.0 0.00 0.00 0.00 57 1019.9
20210414161253 72 163 3.0 6.0 0.00 0.00 0.00 57 1020.0
20210414160828 72 146 2.0 7.0 0.00 0.00 0.00 56 1019.9
20210414160253 72 129 3.0 7.0 0.00 0.00 0.00 56 1020.0
20210414160030 73 171 3.0 7.0 0.00 0.00 0.00 55 1020.1
20210414155802 73 174 2.0 7.0 0.00 0.00 0.00 56 1020.1
20210414154918 72 167 3.0 10.0 0.00 0.00 0.00 57 1019.9
20210414154253 72 126 4.0 14.0 0.00 0.00 0.00 57 1020.0
20210414153752 72 207 3.0 14.0 0.00 0.00 0.00 57 1020.2
20210414153331 71 161 2.0 8.0 0.00 0.00 0.00 60 1020.2
20210414153031 71 165 3.0 8.0 0.00 0.00 0.00 60 1020.2
20210414152818 70 163 4.0 12.0 0.00 0.00 0.00 61 1020.3
20210414151750 69 211 4.0 12.0 0.00 0.00 0.00 62 1020.3
20210414151244 69 210 4.0 9.0 0.00 0.00 0.00 62 1020.3
20210414150746 69 174 4.0 11.0 0.00 0.00 0.00 62 1020.4
20210414150244 69 176 4.0 11.0 0.00 0.00 0.00 61 1020.5
20210414150021 70 173 3.0 11.0 0.00 0.00 0.00 62 1020.6
20210414145826 70 185 2.0 7.0 0.00 0.00 0.00 63 1020.5
20210414144823 69 159 2.0 7.0 0.00 0.00 0.00 65 1020.6
20210414144239 69 136 2.0 7.0 0.00 0.00 0.00 65 1020.5
20210414143742 68 155 2.0 5.0 0.00 0.00 0.00 67 1020.5
20210414143242 67 175 2.0 8.0 0.00 0.00 0.00 67 1020.7
20210414142927 67 188 2.0 8.0 0.00 0.00 0.00 68 1020.9
20210414142735 66 165 2.0 5.0 0.00 0.00 0.00 69 1020.9
20210414141910 65 210 2.0 7.0 0.00 0.00 0.00 71 1020.8
20210414141236 65 180 3.0 7.0 0.00 0.00 0.00 71 1020.9
20210414140739 65 174 2.0 7.0 0.00 0.00 0.00 71 1021.2
20210414140259 64 187 2.0 6.0 0.00 0.00 0.00 72 1021.2
20210414140037 64 200 2.0 6.0 0.00 0.00 0.00 72 1021.2
20210414135919 64 197 2.0 5.0 0.00 0.00 0.00 73 1021.2
20210414134836 63 174 2.0 5.0 0.00 0.00 0.00 74 1021.3
20210414134230 63 174 2.0 6.0 0.00 0.00 0.00 75 1021.4
20210414133732 62 192 2.0 6.0 0.00 0.00 0.00 75 1021.4
20210414133419 62 194 2.0 6.0 0.00 0.00 0.00 76 1021.5
20210414133038 61 167 2.0 6.0 0.00 0.00 0.00 77 1021.4
20210414132846 60 169 3.0 6.0 0.00 0.00 0.00 77 1021.4
20210414131748 60 169 2.0 6.0 0.00 0.00 0.00 78 1021.5
20210414131243 59 172 2.0 6.0 0.00 0.00 0.00 79 1021.8
20210414131034 59 173 2.0 6.0 0.00 0.00 0.00 80 1021.8
20210414130715 58 181 2.0 4.0 0.00 0.00 0.00 80 1021.9
20210414130257 58 192 1.0 3.0 0.00 0.00 0.00 81 1022.0
20210414125940 57 211 1.0 7.0 0.00 0.00 0.00 82 1022.2
20210414124724 57 211 2.0 7.0 0.00 0.00 0.00 83 1022.2
20210414124222 56 157 2.0 5.0 0.00 0.00 0.00 83 1022.1
20210414123715 56 156 1.0 5.0 0.00 0.00 0.00 84 1022.1
20210414123221 56 138 1.0 3.0 0.00 0.00 0.00 85 1021.9
20210414122932 55 128 1.0 3.0 0.00 0.00 0.00 85 1021.9
20210414122724 55 128 1.0 3.0 0.00 0.00 0.00 86 1022.0
20210414121735 54 126 1.0 3.0 0.00 0.00 0.00 86 1022.1
20210414121217 54 126 0.0 3.0 0.00 0.00 0.00 86 1022.2
20210414120706 54 126 0.0 2.0 0.00 0.00 0.00 87 1022.2
20210414120205 53 126 0.0 6.0 0.00 0.00 0.00 87 1022.1
20210414115819 53 126 1.0 6.0 0.00 0.00 0.00 88 1022.2
20210414115438 53 126 2.0 6.0 0.00 0.00 0.00 88 1022.0